This demonstration page uses our WeatherBlox Daily Observations layout. Learn more.

41.55636, -103.73856

Hourly Observations for August 9, 2016

Temp ( °F °C ) Dew Point ( °F °C ) Humidity (%) Winds ( mph kmh ) Pressure ( in mb ) Visibility ( mi km ) Precip ( " mm )
12:53 am 00:53 Clear 66 18.9 56 13.3 70 70 NNE 7 11 29.78 1009 10 16.0934 0 0
1:53 am 01:53 Clear 64 17.8 57 13.9 78 78 NE 9 15 29.78 1009 10 16.0934 0 0
2:53 am 02:53 Clear 63 17.2 57 13.9 81 81 Calm 29.78 1009 10 16.0934 0 0
3:53 am 03:53 Clear 60 15.6 56 13.3 86 86 NNE 3 6 29.79 1009 10 16.0934 0 0
4:53 am 04:53 Mostly Clear 61 16.1 58 14.4 90 90 E 6 9 29.78 1009 10 16.0934 0 0
5:05 am 05:05 Partly Cloudy with Mist and Fog 62 16.7 60 15.6 93 93 ESE 8 13 29.8 1009 1.5 2.41401 0 0
5:07 am 05:07 Mostly Cloudy with Mist and Fog 62 16.7 61 16.1 96 96 ESE 8 13 29.8 1009 0.75 1.207005 0 0
5:18 am 05:18 Mostly Cloudy with Fog 63 17 63 17 100 100 E 8 13 29.8 1009 0.25 0.402335 0 0
5:53 am 05:53 Mostly Cloudy with Fog 65 18.3 64 17.8 97 97 ESE 9 15 29.79 1009 0.25 0.402335 0 0
6:05 am 06:05 Mostly Cloudy with Mist and Fog 65 18.3 64 17.8 97 97 ESE 10 17 29.77 1008 0.75 1.207005 0 0
6:12 am 06:12 Cloudy with Mist and Fog 64 18 64 18 100 100 ESE 9 15 29.77 1008 1.25 2.011675 0 0
6:30 am 06:30 Cloudy with Mist and Fog 64 18 63 17 94 94 ESE 9 15 29.77 1008 3 4.82802 0 0
6:39 am 06:39 Cloudy with Mist and Fog 64 17.8 63 17.2 96 96 ESE 10 17 29.77 1008 2 3.21868 0 0
6:53 am 06:53 Cloudy with Mist and Fog 64 17.8 63 17.2 96 96 SE 9 15 29.81 1010 2 3.21868 0 0
7:04 am 07:04 Cloudy with Mist and Fog 64 18 63 17 94 94 ESE 12 19 29.77 1008 1.75 2.816345 0 0
7:13 am 07:13 Cloudy with Mist and Fog 64 17.8 63 17.2 96 96 ESE 10 17 29.8 1009 2 3.21868 0 0
7:35 am 07:35 Cloudy with Mist and Fog 64 17.8 63 17.2 96 96 SE 8 13 29.8 1009 3 4.82802 0 0
7:53 am 07:53 Cloudy with Mist and Fog 66 18.9 63 17.2 90 90 ESE 7 11 29.83 1010 3 4.82802 0 0
8:50 am 08:50 Partly Cloudy 70 21 63 17 78 78 E 3 6 29.77 1008 10 16.0934 0 0
8:53 am 08:53 Mostly Sunny 71 21.7 63 17.2 76 76 VRB 5 7 29.84 1010 10 16.0934 0 0
9:53 am 09:53 Sunny 76 24.4 63 17.2 64 64 ENE 5 7 29.83 1010 10 16.0934 0 0
10:53 am 10:53 Sunny 80 26.7 64 17.8 58 58 ESE 6 9 29.82 1010 10 16.0934 0 0
11:53 am 11:53 Sunny 84 28.9 62 16.7 48 48 ESE 10 17 29.8 1009 10 16.0934 0 0
12:53 pm 12:53 Sunny 85 29.4 65 18.3 51 51 E 10 17 29.78 1008 10 16.0934 0 0
1:53 pm 13:53 Sunny 89 31.7 63 17.2 42 42 E 15 24 29.75 1008 10 16.0934 0 0
2:53 pm 14:53 Sunny 85 29.4 67 19.4 55 55 E 8 13 29.75 1008 10 16.0934 0 0
3:53 pm 15:53 Sunny 88 31.1 60 15.6 39 39 ESE 10 17 29.72 1007 10 16.0934 0 0
4:53 pm 16:53 Sunny 93 33.9 64 17.8 38 38 E 12 19 29.69 1006 10 16.0934 0 0
5:53 pm 17:53 Sunny 94 34.4 57 13.9 29 29 ESE 8 13 29.65 1004 10 16.0934 0 0
6:53 pm 18:53 Sunny 88 31.1 53 11.7 30 30 SE 10 17 29.67 1005 10 16.0934 0 0
7:53 pm 19:53 Sunny 80 26.7 55 12.8 42 42 ESE 8 13 29.7 1006 10 16.0934 0 0
8:53 pm 20:53 Clear 77 25 57 13.9 50 50 VRB 3 6 29.72 1007 10 16.0934 0 0
9:53 pm 21:53 Clear 82 27.8 55 12.8 40 40 SSE 10 17 29.76 1008 10 16.0934 0 0
10:20 pm 22:20 Mostly Clear 81 27 48 9 32 32 SW 15 24 29.65 1004 8 12.87472 0 0
10:49 pm 22:49 Clear with Nearby Thunderstorms 79 26 52 11 39 39 S 12 19 29.65 1004 10 16.0934 0 0
10:53 pm 22:53 Clear with Nearby Thunderstorms 79 26.1 51 10.6 38 38 S 12 19 29.73 1007 10 16.0934 0 0
11:04 pm 23:04 Partly Cloudy 79 26 52 11 39 39 SSE 10 17 29.65 1004 10 16.0934 0 0
11:53 pm 23:53 Partly Cloudy 78 25.6 49 9.4 36 36 Calm 29.73 1007 10 16.0934 0 0

Powered by AerisWeather